This demonstration page uses our WeatherBlox Daily Observations layout. Learn more.

Left ArrowRight Arrow

39.92423, -83.80882

Hourly Observations for November 17, 2015

Temp ( °F °C ) Dew Point ( °F °C ) Humidity (%) Winds ( mph kmh ) Pressure ( in mb ) Visibility ( mi km ) Precip ( " mm )
12:56 am 00:56 Cloudy 47 8.3 40 4.4 77 77 ESE 5 7 30.22 1023 10 16.0934 0 0
1:56 am 01:56 Cloudy 47 8.3 40 4.4 77 77 E 6 9 30.22 1023 10 16.0934 0 0
2:36 am 02:36 Cloudy 48 9 39 4 71 71 E 6 9 30.24 1024 10 16.0934 0 0
2:56 am 02:56 Cloudy 48 8.8 41 5 77 77 E 5 7 30.22 1023 10 16.0934 0 0
3:39 am 03:39 Cloudy 48 9 41 5 76 76 E 6 9 30.24 1024 10 16.0934 0 0
3:56 am 03:56 Cloudy 49 9.4 41 5 74 74 E 8 13 30.2 1023 10 16.0934 0 0
4:56 am 04:56 Cloudy 49 9.4 41 5 74 74 ESE 7 11 30.2 1023 10 16.0934 0 0
5:56 am 05:56 Cloudy 50 10 40 4.4 68 68 ESE 7 11 30.2 1023 10 16.0934 0 0
6:56 am 06:56 Mostly Cloudy 51 10.5 40 4.4 66 66 ESE 8 13 30.2 1023 10 16.0934 0 0
7:56 am 07:56 Sunny 49 9.4 36 2.2 61 61 E 9 15 30.2 1023 10 16.0934 0 0
8:56 am 08:56 Sunny 52 11.1 35 1.6 52 52 SE 8 13 30.2 1023 10 16.0934 0 0
9:56 am 09:56 Sunny 54 12.2 34 1.1 47 47 SE 10 17 30.19 1022 10 16.0934 0 0
10:56 am 10:56 Partly Cloudy 56 13.3 34 1.1 44 44 SSE 12 19 30.18 1022 10 16.0934 0 0
11:56 am 11:56 Partly Cloudy 59 15 38 3.3 46 46 SSE 12 19 30.14 1021 10 16.0934 0 0
12:56 pm 12:56 Mostly Cloudy 61 16.1 39 3.8 44 44 SE 13 20 30.11 1020 10 16.0934 0 0
1:56 pm 13:56 Mostly Sunny 63 17.2 34 1.1 34 34 SE 17 28 30.09 1019 10 16.0934 0 0
2:56 pm 14:56 Partly Cloudy 62 16.6 37 2.7 40 40 ESE 13 20 30.09 1019 10 16.0934 0 0
3:56 pm 15:56 Mostly Sunny 59 15 38 3.3 46 46 E 13 20 30.09 1019 10 16.0934 0 0
4:56 pm 16:56 Sunny 58 14.4 36 2.2 44 44 ESE 14 22 30.08 1019 10 16.0934 0 0
5:56 pm 17:56 Clear 57 13.8 35 1.6 44 44 ESE 12 19 30.08 1019 10 16.0934 0 0
6:56 pm 18:56 Clear 57 13.8 34 1.1 42 42 ESE 16 26 30.06 1018 10 16.0934 0 0
7:56 pm 19:56 Clear 57 13.8 32 0 39 39 SE 12 19 30.07 1018 10 16.0934 0 0
8:56 pm 20:56 Clear 57 13.8 33 0.5 40 40 SE 12 19 30.05 1018 10 16.0934 0 0
9:56 pm 21:56 Clear 56 13.3 34 1.1 44 44 SE 13 20 30.05 1018 10 16.0934 0 0
10:56 pm 22:56 Clear 57 13.8 32 0 39 39 SE 12 19 30.04 1017 10 16.0934 0 0
11:56 pm 23:56 Clear 57 13.8 32 0 39 39 SE 13 20 30.04 1017 10 16.0934 0 0

Powered by AerisWeather